Voltar ao catálogo

OPS 0856 DEB

LostPO
NORAD 27635·DEBRIS·🇺🇸 United States

Lançado Aug 19, 1966 de Vandenberg Space Force Base

Loading…

Próximas Passagens (próximas 24 horas)

TLE

ObsoletoSource: Space-Track

Época: Nov 12, 2016, 17:02 UTC

1 27635U 66077AA  16317.71038315  .00000007  00000-0  00000+0 0  9991
2 27635  89.2562  46.9448 1314797 102.7044  20.0114  8.68734036458079

Acompanhe OPS 0856 DEB em tempo real com AllMySat

Download on the App Store